This is the latest recevied weather packets stored in our database for station/object M0SDM. If no packets are shown the sender has not sent any weather packets the latest 10 day(s).
| Time | Temp. | Humidity | Pressure | Rain* | Wind** | Luminosity | Snow |
|---|---|---|---|---|---|---|---|
| 1777542021 | 17.22° C | 51% | 1023.4 hPa | 0 mm | - | - | - |
| 1777541121 | 16.11° C | 52% | 1023.6 hPa | 0 mm | - | - | - |
| 1777540221 | 15.56° C | 55% | 1023.9 hPa | 0 mm | - | - | - |
| 1777539321 | 15° C | 57% | 1023.9 hPa | 0 mm | - | - | - |
| 1777538421 | 14.44° C | 60% | 1024.3 hPa | 0 mm | - | - | - |
| 1777537521 | 13.33° C | 61% | 1024.4 hPa | 0 mm | - | - | - |
| 1777536621 | 13.33° C | 61% | 1024.6 hPa | 0 mm | - | - | - |
| 1777535721 | 13.33° C | 62% | 1024.6 hPa | 0 mm | - | - | - |
| 1777534821 | 12.78° C | 65% | 1024.6 hPa | 0 mm | - | - | - |
| 1777533921 | 12.22° C | 67% | 1024.6 hPa | 0 mm | - | - | - |
| 1777533021 | 11.67° C | 72% | 1024.9 hPa | 0 mm | - | - | - |
| 1777532121 | 11.11° C | 74% | 1025 hPa | 0 mm | - | - | - |
| 1777531221 | 9.44° C | 79% | 1024.8 hPa | 0 mm | - | - | - |
| 1777530321 | 8.89° C | 82% | 1024.9 hPa | 0 mm | - | - | - |
| 1777529421 | 8.33° C | 85% | 1025.1 hPa | 0 mm | - | - | - |
| 1777528521 | 8.33° C | 86% | 1025.1 hPa | 0 mm | - | - | - |
| 1777527621 | 7.78° C | 88% | 1025.2 hPa | 0 mm | - | - | - |
| 1777526721 | 7.78° C | 88% | 1025 hPa | 0 mm | - | - | - |
| 1777525821 | 7.22° C | 90% | 1025 hPa | 0 mm | - | - | - |
| 1777524921 | 7.22° C | 90% | 1024.9 hPa | 0 mm | - | - | - |
| 1777524021 | 7.22° C | 91% | 1025 hPa | 0 mm | - | - | - |
| 1777523121 | 7.22° C | 91% | 1025.1 hPa | 0 mm | - | - | - |
| 1777522221 | 7.22° C | 91% | 1024.9 hPa | 0 mm | - | - | - |
| 1777521321 | 7.22° C | 92% | 1025.3 hPa | 0 mm | - | - | - |
| 1777520421 | 7.22° C | 92% | 1025.1 hPa | 0 mm | - | - | - |
* Rain latest hour (hover to see other rain measurements)
** Current wind speed in m/s (hover to see current wind gust speed)